Other Public Products
Issued by NWS Grand Forks, ND

Home | Current Version | Previous Version | Graphics & Text | Print | Product List | Glossary On
Versions: 1 2 3 4 5 6 7 8 9 10 11 12 13 14 15 16 17 18 19 20 21 22 23 24 25 26 27 28 29 30 31 32 33 34 35 36 37 38 39 40 41 42 43 44 45 46 47 48 49 50
000
FPUS83 KFGF 310910
OPUFGF
PRAIRIE TO PINES WEATHER ROUNDUP
NATIONAL WEATHER SERVICE EASTERN NORTH DAKOTA/GRAND FORKS ND
400 AM CDT TUE MAY 31 2016

 **SATELLITE DATA USED TO AUGMENT SKY COVER AT AUTOMATED STATIONS**
 *****  WEATHER ACROSS EASTERN NORTH DAKOTA  *****

CITY           SKY/WX    TMP DP  RH WIND       PRES   REMARKS
GRAND FORKS    MOCLDY    61  57  87 SE16      29.67F
GRAND FORKS AF CLOUDY    58  57  97 SE7       29.68F
GRAND CITY NWS   N/A     57 N/A N/A E14         N/A
BUXTON           N/A     43  60 100 SE10        N/A
DEVILS LAKE    RAIN      59  57  94 SE9       29.69F FOG
FARGO          CLOUDY    62  58  86 S8        29.71S
WAHPETON ARPT  CLOUDY    59  54  82 S6        29.76R
$$

 *****  WEATHER ACROSS CENTRAL AND WESTERN NORTH DAKOTA  *****

CITY           SKY/WX    TMP DP  RH WIND       PRES   REMARKS
JAMESTOWN      CLOUDY    57  56  96 S6        29.71S
BISMARCK       CLOUDY    54  51  90 W14G22    29.78F
MINOT          LGT RAIN  57  54  89 NW7       29.72F
MINOT AFB      CLOUDY    55  55  99 N7        29.71F
GARRISON         N/A     52  51  97 W24G32    29.75F
WILLISTON      LGT RAIN  51  48  89 W10       29.80F
DICKINSON      CLEAR     42  39  89 W12       29.82F
HETTINGER      MOCLDY    44  41  89 W15       29.88F
$$

 *****  OTHER OBSERVATIONS NORTHEAST NORTH DAKOTA  *****

CITY           SKY/WX    TMP DP  RH WIND       PRES   REMARKS
WALHALLA       FAIR      57  54  88 E12       29.74F
LANGDON        CLOUDY    57  57 100 E18       29.71F FOG
CAVALIER       LGT RAIN  57  57 100 E17       29.72F
GRAFTON        CLOUDY    59  59 100 E14       29.71F
CANDO          NOT AVBL
FORT TOTTEN      N/A     57  57 100 SE7       29.95S
ROLLA          RAIN      55  55 100 NE12      29.72F
RUGBY          LGT RAIN  55  55 100 NE10      29.68F
 ***** THE ABOVE OBSERVATIONS ARE NON NWS ARE NOT QUALITY
        CONTROLLED AND MAY MIS-REPORT RAIN FOR SNOW...
$$

 *****  OTHER OBSERVATIONS SOUTHEAST NORTH DAKOTA *****

CITY           SKY/WX    TMP DP  RH WIND       PRES   REMARKS
COOPERSTOWN    NOT AVBL
VALLEY CITY    CLOUDY    57  57 100 S6        29.73S
OAKES            N/A    N/A N/A N/A MISG        N/A
GWINNER        PTSUNNY   59  57  94 S7        29.76R
SHEYENNE NWR     N/A     58  58  99 S5        29.95S
BUFFALO          N/A     60  57  91 SW6         N/A
WYNDMERE         N/A     61  59  94 S5          N/A
 ***** THE ABOVE OBSERVATIONS ARE NON NWS ARE NOT QUALITY
       CONTROLLED AND MAY MIS-REPORT RAIN FOR SNOW...
$$

  *****  WEATHER ACROSS NORTHERN MINNESOTA  *****

CITY           SKY/WX    TMP DP  RH WIND       PRES   REMARKS
FLAG ISLAND    CLOUDY    57  46  67 E8        29.88F
WARROAD        RAIN      57  52  82 E13G21    29.87F
ROSEAU         RAIN      54  48  82 E13G18    29.83F
HALLOCK        CLOUDY    57  55  94 E22G32    29.70F
THF RVR FALLS  CLOUDY    59  54  82 E21       29.74F
HALSTAD        NOT AVBL
FOSSTON        RAIN      57  55  94 E13       29.76F
BAUDETTE       CLOUDY    57  47  69 SE15G24   29.88R
WASKISH        LGT RAIN  57  52  82 E15       29.83F
CROOKSTON      CLOUDY    61  59  94 SE16G24   29.69F
$$
  *****  WEATHER ACROSS CENTRAL AND WEST MINNESOTA  *****

CITY           SKY/WX    TMP DP  RH WIND       PRES   REMARKS
BEMIDJI        RAIN      58  56  92 E7        29.83F
PARK RAPIDS    LGT RAIN  61  58  90 E3        29.80F FOG
WADENA         HVY RAIN  57  57 100 CALM      29.81S
DETROIT LAKES  CLOUDY    61  57  88 SE9       29.75F
MOORHEAD       CLOUDY    61  57  88 SW5       29.73R
FERGUS FALLS   CLOUDY    61  61 100 SE10      29.72R
ELBOW LAKE     CLOUDY    60  58  94 SE16      29.76R
MORRIS MN      CLOUDY    61  59  94 SE15      29.76F
STAPLES        RAIN      61  59  94 CALM      29.82S
WHEATON        CLOUDY    61  61 100 S6        29.80R
$$
  *****  WEATHER ELSEWHERE ACROSS MINNESOTA  *****

CITY           SKY/WX    TMP DP  RH WIND       PRES   REMARKS
DULUTH         CLOUDY    48  42  80 E21G33    29.98R
INTRNTL FALLS  CLOUDY    55  46  71 E14       29.93F
ELY            MOCLDY    48  39  71 E10G17    30.02R
CLOQUET        CLOUDY    48  41  76 E12G24    29.98R
BRAINERD       CLOUDY    60  56  86 E8G16     29.84S
HIBBING        CLOUDY    49  42  77 E14G20    29.96R
ALEXANDRIA     CLOUDY    61  57  87 SE15      29.80F
SAINT CLOUD    RAIN      66  57  72 SW15G25   29.84R
MINNEAPOLIS    CLOUDY    68  56  65 SE6       29.85S
$$

  *****  WEATHER ACROSS SOUTH DAKOTA  *****

CITY           SKY/WX    TMP DP  RH WIND       PRES   REMARKS
SIOUX FALLS    CLOUDY    62  59  90 S7        29.83R
BROOKINGS      LGT RAIN  60  59  96 W8        29.80R
WATERTOWN      CLOUDY    59  56  89 W16G23    29.79R
HURON          MOCLDY    58  55  90 W12       29.84R
SISSETON         N/A     60  59  96 S9        29.76R
ABERDEEN       CLOUDY    58  54  86 W9        29.79R
MITCHELL       MOCLDY    60  56  86 W10       29.87R
PIERRE         CLOUDY    52  47  83 W9        29.91R
MOBRIDGE       CLOUDY    53  47  79 NW9       29.82R
RAPID CITY     CLOUDY    48  33  56 NW13      30.01F
$$

  *****  SOME WEATHER IN NEARBY STATES *****

CITY           SKY/WX    TMP DP  RH WIND       PRES   REMARKS
GLASGOW MT     LGT RAIN  49  48  97 W15       29.86F
GREAT FALLS MT CLOUDY    43  38  82 NW9       30.22S
CHEYENNE WY    CLOUDY    45  37  73 N13G24    30.15S
SCOTTSBLUFF NE CLOUDY    50  43  77 W5        30.10F
OMAHA NE       CLOUDY    68  61  78 S9        29.86F
DES MOINES IA  CLOUDY    67  59  75 SE10      29.91F
DAVENPORT IA   PTCLDY    65  61  87 NE6       29.95F
CHICAGO IL     MOCLDY    66  55  67 SE3       29.98F
EAU CLAIRE WI  CLOUDY    62  60  93 NE5       29.89F
LA CROSSE WI   CLOUDY    64  60  87 SE9       29.91S
$$

  *****  SOME NATIONAL WEATHER *****

CITY           SKY/WX    TMP DP  RH WIND       PRES   REMARKS
LA GUARDIA NY  CLOUDY    73  67  80 SW3       29.92S
RALEIGH NC     CLOUDY    70  69  97 NE3       29.93F FOG
ATLANTA GA     PTCLDY    73  61  65 NE9       29.93S
NEW ORLEANS LA PTCLDY    73  70  90 CALM      29.92S
OKLAHOMA CITY  MOCLDY    66  65  96 SE6       29.89F
ALBUQUERQUE NM CLOUDY    66  34  30 N8        29.99R
SALT LAKE CITY CLEAR     59  42  53 CALM      30.05S
LOS ANGELES CA CLOUDY    59  55  87 W5        29.88F
BOISE ID       CLEAR     52  35  52 SW7       30.08R
SEATTLE WA     PTCLDY    59  43  55 NE10      30.16F
$$

*** WEATHER ACROSS MANITOBA...SASKATCHEWAN AND ONTARIO ***
                ***ONTARIO***

CITY           SKY/WX    TMP DP  RH WIND       PRES   REMARKS
GERALDTON      CLEAR     39  37  93 N2        30.13F
THUNDER BAY    CLEAR     43  41  93 VRB2      30.13R
SIOUX LOOKOUT  MOCLDY    46  45  93 E2        30.08R
TORONTO        MOCLDY    63  48  59 NW6       29.97R
BIG TROUT LK   CLOUDY    30  28  93 NE8       30.25R WCI  23
PICKLE LAKE    NOT AVBL
DRYDEN         MOCLDY    50  45  81 E9        30.03F
KENORA         MOCLDY    54  45  71 E16G26    29.94F
$$
                *** MANITOBA***

CITY           SKY/WX    TMP DP  RH WIND       PRES   REMARKS
BRANDON        LGT RAIN  55  54  94 NE17G25   29.80F FOG
DAUPHIN        PTCLDY    54  52  94 NE10      29.91S
ISLAND LAKE    CLEAR     41  36  81 E6        30.15
PILOT MOUND      N/A     55  54  94 E15         N/A
THE PAS        MOCLDY    50  45  81 E5        30.08F
THOMPSON       PTCLDY    37  32  81 NE9       30.21F
WINNIPEG       LGT RAIN  57  50  77 E15G21    29.84S
LYNN LAKE      LGT RAIN  45  41  87 E5        30.18S
CHURCHILL      CLOUDY    27  23  86 SE12      30.40S WCI  16
GILLAM         PTCLDY    28  27  93 E7        30.31R FOG     WCI  21
$$
                ***SASKATCHEWAN***

CITY           SKY/WX    TMP DP  RH WIND       PRES   REMARKS
ESTEVAN        LGT RAIN  54  52  94 N16       29.76F FOG
KINDERSLEY     CLOUDY    50  48  93 N13G18    30.08R
LLOYDMINSTER   CLOUDY    50  48  93 NW12      30.12R
PRINCE ALBERT  CLOUDY    50  48  93 N8        30.04F
REGINA         LGT RAIN  52  52 100 N13       29.90S
YORKTON        CLOUDY    52  48  87 N10       29.92F   C1F1C2F2C3F3C4F4C5F5C6F6C7F7C8F8C9F9CaFaCbFbCcFcCdFdCe!



USA.gov is the U.S. government's official web portal to all federal, state and local government web resources and services.